Location: Unspecified
(0.0000°N, 0.0000°E)
Time: 01:49:57
(UTC+00:00)

ASTEX 1 - Pass Details

Date: 27 January 2013
Orbit: 723 x 742 km, 92.7° (Epoch: 28 August)

Event Time Altitude Azimuth Distance (km) Brightness Sun altitude
Rises 18:57:55 0° 185° (S) 3,138 7.0 -10.7°
Reaches altitude 10° 19:00:17 10° 191° (S) 2,213 6.3 -11.2°
Maximum altitude 19:04:56 46° 263° (W) 970 4.6 -12.4°
Drops below altitude 10° 19:09:35 10° 336° (NNW) 2,203 5.9 -13.5°
Sets 19:11:57 0° 342° (NNW) 3,122 6.7 -14.0°
